Flag for Brazil Weather past 2 weeks in São Paulo, São Paulo, Brazil

Now
70 °F

Clear.


Feels Like: 70 °F
Forecast: N/A
Wind: 12 mph from Southeast

Location: Sao Paulo Airport

Current Time: Dec 18, 2014 at 9:13:43 PM

Latest Report: Dec 18, 2014 at 9:00 PM


Visibility: 10 mi

Pressure: 29.92 "Hg

Humidity: 69%

Dew point: 59 °F

Location of São PauloLocation

Historic Weather in São Paulo — Graph

°F

São Paulo temperature yesterday

Maximum temperature yesterday: 84 °F (at 2:00 PM)
Minimum temperature yesterday: 61 °F (at 2:00 AM)
Average temperature yesterday: 70 °F

Past Weeks' High & Low Weather Summary

 TemperatureHumidityPressure
High88 °F (Dec 8, 4:00 PM)100% (Dec 11, 6:00 PM)30.18 "Hg (Dec 11, 6:00 PM)
Low32 °F (Dec 12, 7:00 PM)31% (Dec 18, 12:00 PM)29.83 "Hg (Dec 13, 5:00 PM)
Average70 °F72%30.04 "Hg
* Reported Dec 3 8:00 PM — Dec 18 8:00 PM, São Paulo, Weather by CustomWeather, © 2014

Note: Actual official high and low records may vary slightly from our data, if they occured in-between our weather recording intervals... More about our weather records

Advertising

São Paulo weather history for previous 24 hours

 ConditionsComfort  
Time TempWeatherWind HumidityBarometerVisibility
8:00 PM
Dec 18
73 °FClear.10 mph69%29.92 "Hg10 mi
7:00 PM75 °FSunny.14 mph65%29.89 "Hg10 mi
6:00 PM81 °FSunny.14 mph54%29.89 "Hg10 mi
5:00 PM82 °FSunny.14 mph55%29.86 "Hg10 mi
4:00 PM86 °FSunny.15 mph46%29.86 "Hg10 mi
3:00 PM88 °FSunny.2 mph33%29.89 "Hg10 mi
2:00 PM88 °FSunny.3 mph35%29.92 "Hg10 mi
1:00 PM86 °FSunny.2 mph38%29.95 "Hg10 mi
12:00 PM86 °FSunny.2 mph31%29.95 "Hg10 mi
11:00 AM82 °FSunny.3 mph35%29.98 "Hg10 mi
10:00 AM79 °FSunny.3 mph51%29.98 "Hg10 mi
9:00 AM75 °FSunny.3 mph61%29.98 "Hg10 mi
8:00 AM72 °FSunny.2 mph73%29.95 "Hg10 mi
7:00 AM66 °FClear.2 mph83%29.95 "Hg4 mi
6:00 AM66 °FClear.2 mph83%29.95 "Hg10 mi
5:00 AM66 °FClear.1 mph83%29.92 "Hg10 mi
4:00 AM66 °FClear.No wind83%29.95 "Hg10 mi
3:00 AM66 °FClear.No wind78%29.95 "Hg10 mi
2:00 AM66 °FClear.2 mph78%29.95 "Hg10 mi
1:00 AM68 °FClear.No wind78%29.98 "Hg10 mi
12:00 AM68 °FClear.3 mph78%30.01 "Hg10 mi
11:00 PM
Dec 17
68 °FClear.5 mph78%30.01 "Hg10 mi
10:00 PM68 °FClear.6 mph78%29.98 "Hg10 mi
9:00 PM70 °FClear.9 mph73%29.95 "Hg10 mi
Weather by CustomWeather, © 2014

See weather overviewHow to use our weather pages